sat.trackr.live / text

‹ back to catalog

POLAR SCOUT KODIAK

NORAD 43764 · 2018-099G

PAYLOAD ACTIVE UNKNOWN

§ Identity

Operator
Country
US
Launch date
2018-12-03
Launch site
AFWTR
Launch vehicle
Mass (kg)
RCS (m²)

External: N2YO · Heavens-Above · Gunter

§ Orbital elements

Epoch: 2026-05-24T23:29:00.151008Z

Period
91.67 min
Inclination
97.4173°
Eccentricity
0.0004207
Mean motion
15.70829188 rev/d
Perigee alt
353.7 km
Apogee alt
359.4 km
Semi-major
6,734.7 km
B*
9.2042e-4
RAAN
227.1737°
Arg perigee
261.7362°
Mean anomaly
98.3424°
Rev number
41,128

§ Raw data

POLAR SCOUT KODIAK1 43764U 18099G   26144.97847397  .00115601  00000+0  92042-3 0  99952 43764  97.4173 227.1737 0004207 261.7362  98.3424 15.70829188411281

JSON: /api/v1/satellites/43764 · /tle

For live sub-satellite position, see the globe view (requires WebGL).

§ Visibility from observer

Set your observer location to see the next 7 days of passes ≥ 10°. The values pass through the URL so the page stays shareable.

No JS? Fill the form by hand. The geolocation button needs JavaScript.